星链-5062 (STARLINK-5062 )

导读

STARLINK-5062是美国太空探索技术公司(SpaceX)星链(Starlink)项目中的卫星,于2023年2月17日发射。星链项目旨在构建全球卫星互联网星座,为全球偏远地区等提供低延迟高速互联网服务。该卫星入轨后,将和其他星链卫星组网,进一步完善星链星座的全球覆盖能力,增强星座的服务稳定性。

基本信息
目录编号:
55637
目录名称:
STARLINK-5062
国际标识:
2023-021K
轨道中心:
EARTH
卫星名称:
星链-5062
卫星全名:
星链-5062 (STARLINK-5062 )
卫星状态:
在轨 (已飞行1296 天)
发射日期:
2023-02-17 UTC
国别 :
美国 (US)
星等 :
--
轨道信息
数据来源 国际轨道数据 AOE轨道数据
星历时间 2026-09-04T21:45:15+0800
10小时前
查看轨道信息
2026-09-03T22:00:00+0800
1天前
查看轨道信息
半长轴 6950.205km 6950.193km
偏心率 0.0002641 0.0002832
轨道倾角 69.999° 70.000°
近地点辐角 264.019° 266.233°
升交点赤经 93.542° 96.037°
平近点角 96.067° 156.673°
近地点 570.232km 570.087km
远地点 573.904km 574.025km
周期 96.107分钟 96.107分钟
每日圈数 14.983262 14.983301
详细信息
固有亮度:
5
最大亮度:
2.5
卫星平台:
Starlink v1.5
覆盖范围:
全球
运营商:
太空探索技术公司
运营商所在国:
美国
制造商(研发单位):
太空探索技术公司
制造商所在国:
美国
使用方式:
暂无
卫星简介
星链(Starlink)计划是由太空探索技术公司(SpaceX)提出的一个巨型低轨卫星互联网星座项目,计划在2019年至2024年间在太空搭建由约1.2万颗卫星组成的“星链”网络,其中1584颗将部署在地球上空550千米处的近地轨道,并从2020年开始工作。该卫星仍在工作。
2D轨道图
3D轨道图
轨道高度分析图
轨道倾角分析图
轨道综合分析图
查看轨道综合分析图
交会数据列表
事件ID 空间交会对象 最接近时刻(TCA) 交会距离 交会风险概率(CRP) 交会风险指数(CRI) 操作
CDM_260905-124104-471205-563722
2026-09-05T
12:41:16+0000
1.753 km
极远距离
4.106906E-6 低风险 0.47